Location: 3 Angels Observatory
(30.5437°N, 88.5068°W)
Time: 07:47:28
(UTC-06:00)

Daily predictions for brighter satellites

Satellite Brightness Start Highest point End
(mag) Time Altitude Azimuth Time Altitude Azimuth Time Altitude Azimuth
ATLAS 5 CENTAUR R/B 4.3 17:07:40 10° SSW 17:12:52 28° SE 17:31:02 10° E
PAYLOAD A 4.1 17:14:51 10° S 17:19:40 84° WSW 17:24:42 10° NNW
USA 234 3.6 17:14:15 10° NE 17:20:42 65° NW 17:27:08 10° SW
Okean 1-7 Rocket 3.7 17:18:02 10° S 17:22:28 61° E 17:26:53 10° NNE
SMAP 3.0 17:21:01 10° SSE 17:25:38 68° ENE 17:30:15 10° N
Cosmos 1666 4.2 17:23:05 10° NE 17:25:46 18° ENE 17:28:28 10° ESE
Genesis I 4.1 17:23:59 10° NW 17:27:48 54° WSW 17:31:35 10° SSE
ASTRO F (AKARI) 4.3 17:25:33 10° NNE 17:28:41 62° ESE 17:31:54 10° S
SJ-12 4.1 17:30:18 10° S 17:34:23 79° WSW 17:38:30 10° NNW
Cosmos 1346 Rocket 4.4 17:31:10 10° SSW 17:34:46 35° W 17:38:21 10° NNW
Cosmos 1833 Rocket 2.8 17:31:22 10° N 17:36:54 55° ENE 17:42:23 10° SE
NOSS 3-4 (A) 4.4 17:30:59 10° N 17:37:20 34° NE 17:43:58 10° ESE
NOSS 3-4 (C) 4.4 17:31:05 10° N 17:37:26 33° NE 17:44:02 10° ESE
Meteor 2-21 4.4 17:31:37 10° N 17:37:47 85° E 17:43:51 10° S
SL-24 DEB 4.3 17:33:09 10° N 17:37:52 88° W 17:42:30 10° S
AQUARIUS 4.4 17:37:49 10° S 17:42:17 75° WSW 17:46:47 10° NNW
Cosmos 1606 Rocket 4.4 17:39:15 10° NNE 17:43:07 28° E 17:46:56 10° SE
Cosmos 2056 Rocket 3.6 17:42:16 10° SSW 17:47:39 90° W 17:52:59 10° NNE
Cosmos 2082 Rocket 2.2 17:42:50 10° NNW 17:48:33 86° ENE 17:54:14 10° SSE
Cosmos 1025 Rocket 3.0 17:44:41 10° S 17:49:03 80° E 17:53:27 10° N
Cosmos 407 Rocket 4.4 17:45:07 10° NNE 17:49:16 24° ENE 17:53:27 10° ESE
Cosmos 1743 2.6 17:48:37 10° N 17:52:29 89° E 17:56:19 10° S
COSMO-SKYMED 1 2.5 17:48:53 10° NNE 17:53:14 78° ESE 17:57:33 10° S
Meteor 2-14 Rocket 4.4 17:47:42 10° N 17:53:52 84° E 17:59:59 10° S
Meteor 1-28 Rocket 3.6 17:51:38 11° NNE 17:55:02 41° E 17:58:35 10° S
OAO 2 Rocket 4.1 17:51:23 10° SW 17:56:14 40° SSE 17:59:27 19° E
Orbus 7S? 2.6 17:57:23 10° SSW 18:00:32 59° SE 18:01:28 33° ENE
Cosmos 2239 Rocket 4.4 17:55:52 10° N 18:02:02 76° E 18:08:10 10° S
Intercosmos 25 3.7 18:01:28 10° NNW 18:04:41 63° W 18:08:55 10° S
Abrixas 2.3 18:03:13 10° NW 18:06:09 86° SW 18:07:55 22° SE
Cosmos 1484 Rocket 2.6 18:04:54 10° SSE 18:08:38 89° ENE 18:12:21 10° N
YAOGAN 1 4.3 18:06:32 10° SSW 18:10:29 35° W 18:14:28 10° NNW
NOAA 12 4.4 18:08:11 10° SE 18:13:06 41° ENE 18:18:00 10° N
Cosmos 1821 Rocket 3.9 18:09:08 10° N 18:15:14 86° W 18:21:22 10° S
Cosmos 2369 Rocket 2.2 18:13:47 10° S 18:19:20 62° ESE 18:22:50 23° NNE
Cosmos 2058 Rocket 3.2 18:17:01 10° N 18:21:20 48° E 18:25:34 10° SSE
Cosmos 1605 Rocket 3.9 18:20:00 10° N 18:26:10 61° E 18:32:13 10° SSE
Meteor 2-9 Rocket 4.1 18:21:25 10° N 18:26:47 84° W 18:32:05 10° S
Okean 2 4.4 18:27:50 10° SSW 18:31:50 47° W 18:35:53 10° N
ATLAS 3B CENTAUR R/B 4.0 18:08:49 10° W 18:32:08 77° S 18:37:23 27° ESE
Cosmos 1340 3.4 18:31:50 10° SSW 18:35:30 52° W 18:37:49 21° N
Cosmos 1452 Rocket 3.6 18:31:13 10° SSW 18:36:26 77° WNW 18:39:51 22° N
Meteor 1-15 Rocket 4.2 18:31:02 10° N 18:36:54 87° W 18:42:38 10° S
Delta 2 Rocket 3.5 18:34:57 10° WNW 18:38:10 51° NNW 18:38:10 51° NNW
Cosmos 1190 Rocket 4.0 18:37:03 10° NNW 18:42:16 79° WSW 18:47:26 10° S
METEOR-M 4.0 18:38:23 10° SSE 18:43:40 73° ENE 18:49:00 10° N
Cosmos 1943 Rocket 2.6 18:38:48 10° S 18:43:25 41° ESE 18:43:25 41° ESE
Centaur D AC-25 4.3 18:44:47 10° WSW 18:50:24 71° SSE 19:00:04 32° E
Centaur D AC-25 4.3 18:44:47 10° WSW 18:50:24 71° SSE 19:00:03 32° E
Centaur D AC-25 4.3 18:44:47 10° WSW 18:50:25 71° SSE 19:00:04 32° E
Cosmos 1727 Rocket 4.4 18:53:06 10° SSW 18:59:14 62° W 19:05:22 10° N
Cosmos 1626 Rocket 4.1 18:55:28 10° S 18:58:49 51° S 18:58:49 51° S
FALCON 9 R/B 2.9 18:53:37 10° W 19:12:38 70° N 19:13:37 63° NE
